This is the latest recevied weather packets stored in our database for station/object AA1FF. If no packets are shown the sender has not sent any weather packets the latest 10 day(s).
| Time | Temp. | Humidity | Pressure | Rain* | Wind** | Luminosity | Snow |
|---|---|---|---|---|---|---|---|
| 1777302525 | 17.22° C | 40% | 1024 hPa | 0 mm | - | 821 W/m² | - |
| 1777302225 | 17.22° C | 40% | 1024 hPa | 0 mm | - | 814 W/m² | - |
| 1777301924 | 17.22° C | 40% | 1024 hPa | 0 mm | - | 803 W/m² | - |
| 1777301624 | 17.22° C | 40% | 1024 hPa | 0 mm | - | 793 W/m² | - |
| 1777301325 | 16.67° C | 40% | 1024 hPa | 0 mm | - | 784 W/m² | - |
| 1777301024 | 16.67° C | 40% | 1024 hPa | 0 mm | - | 772 W/m² | - |
| 1777300724 | 16.11° C | 41% | 1024 hPa | 0 mm | - | 762 W/m² | - |
| 1777300426 | 16.11° C | 41% | 1024 hPa | 0 mm | - | 752 W/m² | - |
| 1777300123 | 16.11° C | 41% | 1024 hPa | 0 mm | - | 739 W/m² | - |
| 1777299824 | 16.11° C | 41% | 1024 hPa | 0 mm | - | 728 W/m² | - |
| 1777299524 | 16.11° C | 41% | 1024 hPa | 0 mm | - | 716 W/m² | - |
| 1777299224 | 15.56° C | 41% | 1024 hPa | 0 mm | - | 703 W/m² | - |
| 1777298923 | 15.56° C | 41% | 1024 hPa | 0 mm | - | 691 W/m² | - |
| 1777298624 | 15.56° C | 42% | 1024 hPa | 0 mm | - | 676 W/m² | - |
| 1777298325 | 15° C | 43% | 1024 hPa | 0 mm | - | 663 W/m² | - |
| 1777298024 | 15° C | 43% | 1024 hPa | 0 mm | - | 649 W/m² | - |
| 1777297724 | 15° C | 43% | 1024 hPa | 0 mm | - | 639 W/m² | - |
| 1777297425 | 15° C | 43% | 1024 hPa | 0 mm | - | 621 W/m² | - |
| 1777297124 | 14.44° C | 43% | 1024 hPa | 0 mm | - | 608 W/m² | - |
| 1777296824 | 14.44° C | 45% | 1024 hPa | 0 mm | - | 594 W/m² | - |
| 1777296526 | 14.44° C | 44% | 1024 hPa | 0 mm | - | 577 W/m² | - |
| 1777295934 | 13.89° C | 46% | 1024 hPa | 0 mm | - | 547 W/m² | - |
| 1777295624 | 13.33° C | 47% | 1024 hPa | 0 mm | - | 532 W/m² | - |
| 1777295325 | 12.78° C | 46% | 1024 hPa | 0 mm | - | 516 W/m² | - |
| 1777295025 | 12.22° C | 47% | 1024 hPa | 0 mm | - | 501 W/m² | - |
* Rain latest hour (hover to see other rain measurements)
** Current wind speed in m/s (hover to see current wind gust speed)